Weather History for KMNH - February, 2013

Change the Weather History Date:

Thursday, February 14, 2013

  Actual Average (KDEN) Record (KDEN)
Temperature  
Mean Temperature 22 °F 32 °F  
Max Temperature 35 °F 46 °F 71 °F (1979)
Min Temperature 8 °F 18 °F -10 °F (1903)
Degree Days  
Heating Degree Days 44 33  
Month to date heating degree days 472  
Since 1 July heating degree days 4003  
Cooling Degree Days 0 0  
Month to date cooling degree days 0  
Year to date cooling degree days 0  
Moisture  
Dew Point 14 °F    
Average Humidity 76    
Maximum Humidity 93    
Minimum Humidity 38    
Precipitation  
Precipitation 0.00 in 0.01 in 0.41 in (1987)
Month to date precipitation 0.17  
Year to date precipitation 0.58  
Snow  
Snow 0.00 in - - ()
Month to date snowfall  
Since 1 July snowfall  
Snow Depth -    
Sea Level Pressure  
Sea Level Pressure 30.09 in    
Wind  
Wind Speed 9 mph (East)    
Max Wind Speed 21 mph    
Max Gust Speed 32 mph    
Visibility 9 miles    
Events Snow    
T = Trace of Precipitation, MM = Missing Value Source: NWS Daily Summary

Daily Weather History Graph

Daily Weather History Graph

Search for Another Location

Airport or City:

Trip Planner

Search our weather history database for the weather conditions in past years. The results will help you decide how hot, cold, wet, or windy it might be!

Date:

Astronomy

Feb. 14, 2013 Rise Set
Actual Time 6:51 AM MST 5:34 PM MST
Civil Twilight 6:23 AM MST 6:02 PM MST
Nautical Twilight 5:52 AM MST 6:33 PM MST
Astronomical Twilight 5:21 AM MST 7:04 PM MST
Moon 8:56 AM MST (2/14) 10:37 PM MST (2/14)
Length of Visible Light 11h 38m
Length of Day
10h 43m
Waxing Crescent, 22% of the Moon is Illuminated
Feb 14
Waxing Crescent
Feb 17
First Quarter
Feb 25
Full
Mar 4
Last Quarter
Mar 11
New

Hourly Weather History & Observations

Time (MST) Temp. Windchill Dew Point Humidity Pressure Visibility Wind Dir Wind Speed Gust Speed Precip Events Conditions
12:15 AM 23.0 °F 15.8 °F 12.2 °F 63% 29.98 in 10.0 mi SE 5.8 mph - N/A   Clear
12:34 AM 23.0 °F 14.7 °F 12.2 °F 63% 29.98 in 10.0 mi SSE 6.9 mph - N/A   Clear
12:54 AM 23.0 °F 13.9 °F 12.2 °F 63% 29.98 in 10.0 mi SSE 8.1 mph - N/A   Clear
1:14 AM 23.0 °F 15.8 °F 12.2 °F 63% 29.99 in 10.0 mi SSE 5.8 mph - N/A   Clear
1:34 AM 23.0 °F 17.0 °F 12.2 °F 63% 29.98 in 10.0 mi South 4.6 mph - N/A   Clear
1:54 AM 23.0 °F 15.8 °F 12.2 °F 63% 29.98 in 10.0 mi SSW 5.8 mph - N/A   Clear
2:15 AM 23.0 °F 11.7 °F 12.2 °F 63% 29.99 in 10.0 mi ESE 11.5 mph - N/A   Clear
2:35 AM 23.0 °F 13.1 °F 14.0 °F 68% 29.98 in 10.0 mi ESE 9.2 mph - N/A   Clear
2:55 AM 21.2 °F 10.9 °F 14.0 °F 74% 29.98 in 10.0 mi ESE 9.2 mph - N/A   Clear
3:15 AM 21.2 °F 11.7 °F 17.6 °F 86% 29.98 in 10.0 mi ESE 8.1 mph - N/A   Clear
3:35 AM 21.2 °F 10.1 °F 19.4 °F 93% 29.97 in 10.0 mi SE 10.4 mph - N/A   Clear
3:54 AM 21.2 °F 11.7 °F 19.4 °F 93% 29.97 in 10.0 mi SE 8.1 mph - N/A   Clear
4:15 AM 19.4 °F 9.5 °F 17.6 °F 93% 29.97 in 10.0 mi SE 8.1 mph - N/A   Clear
4:35 AM 21.2 °F 10.1 °F 17.6 °F 86% 29.97 in 10.0 mi SSE 10.4 mph - N/A   Clear
4:55 AM 21.2 °F 12.6 °F 17.6 °F 86% 29.99 in 10.0 mi East 6.9 mph - N/A   Clear
5:15 AM 21.2 °F 10.9 °F 19.4 °F 93% 29.98 in 10.0 mi SE 9.2 mph - N/A   Clear
5:35 AM 23.0 °F 13.9 °F 17.6 °F 80% 29.99 in 10.0 mi SSE 8.1 mph - N/A   Clear
5:55 AM 23.0 °F 13.1 °F 15.8 °F 74% 29.99 in 10.0 mi South 9.2 mph - N/A   Clear
6:14 AM 23.0 °F 11.1 °F 14.0 °F 68% 29.99 in 10.0 mi South 12.7 mph - N/A   Clear
6:35 AM 23.0 °F 10.6 °F 14.0 °F 68% 29.99 in 10.0 mi South 13.8 mph - N/A   Clear
6:54 AM 23.0 °F 11.7 °F 14.0 °F 68% 29.99 in 10.0 mi South 11.5 mph - N/A   Clear
7:14 AM 23.0 °F 12.4 °F 14.0 °F 68% 30.00 in 10.0 mi SSW 10.4 mph - N/A   Clear
7:33 AM 23.0 °F 11.7 °F 14.0 °F 68% 30.01 in 10.0 mi SSW 11.5 mph - N/A   Clear
7:54 AM 24.8 °F 14.0 °F 14.0 °F 64% 30.01 in 10.0 mi SSW 11.5 mph 18.4 mph N/A   Clear
8:14 AM 24.8 °F 13.4 °F 15.8 °F 69% 30.02 in 10.0 mi SSW 12.7 mph 19.6 mph N/A   Clear
8:34 AM 26.6 °F 15.7 °F 15.8 °F 64% 30.03 in 10.0 mi SSW 12.7 mph - N/A   Scattered Clouds
8:54 AM 28.4 °F 16.6 °F 17.6 °F 64% 30.03 in 10.0 mi SW 16.1 mph 19.6 mph N/A   Mostly Cloudy
9:14 AM 30.2 °F 19.8 °F 17.6 °F 60% 30.04 in 10.0 mi SW 13.8 mph - N/A   Overcast
9:34 AM 32.0 °F 23.6 °F 17.6 °F 55% 30.04 in 10.0 mi SSW 10.4 mph - N/A   Overcast
9:54 AM 32.0 °F 25.6 °F 14.0 °F 48% 30.04 in 10.0 mi SW 6.9 mph - N/A   Overcast
10:14 AM 32.0 °F 26.4 °F 12.2 °F 44% 30.05 in 10.0 mi West 5.8 mph - N/A   Overcast
10:34 AM 33.8 °F 27.0 °F 12.2 °F 41% 30.05 in 10.0 mi WNW 8.1 mph - N/A   Overcast
10:54 AM 33.8 °F 24.3 °F 10.4 °F 38% 30.06 in 10.0 mi North 13.8 mph 17.3 mph N/A   Overcast
11:14 AM 35.6 °F 28.0 °F 12.2 °F 38% 30.07 in 10.0 mi NNW 10.4 mph - N/A   Overcast
11:34 AM 35.6 °F 28.6 °F 12.2 °F 38% 30.06 in 10.0 mi North 9.2 mph 18.4 mph N/A   Mostly Cloudy
11:54 AM 33.8 °F 24.3 °F 14.0 °F 44% 30.07 in 10.0 mi NNE 13.8 mph 20.7 mph N/A   Mostly Cloudy
12:14 PM 26.6 °F 12.7 °F 19.4 °F 74% 30.09 in 10.0 mi NNE 20.7 mph 31.1 mph N/A   Overcast
12:34 PM 21.2 °F 6.0 °F 19.4 °F 93% 30.11 in 4.0 mi NNE 19.6 mph 32.2 mph N/A Snow Light Snow
12:54 PM 21.2 °F 7.3 °F 19.4 °F 93% 30.13 in 1.8 mi North 16.1 mph 25.3 mph N/A Snow Light Snow
1:14 PM 19.4 °F 5.5 °F 17.6 °F 93% 30.13 in 4.0 mi North 15.0 mph 24.2 mph N/A Snow Light Snow
1:34 PM 21.2 °F 6.8 °F 17.6 °F 86% 30.13 in 3.0 mi North 17.3 mph 23.0 mph N/A Snow Light Snow
1:55 PM 21.2 °F 6.8 °F 17.6 °F 86% 30.14 in 1.2 mi North 17.3 mph 20.7 mph N/A Snow Light Snow
2:15 PM 21.2 °F 6.8 °F 17.6 °F 86% 30.15 in 2.5 mi North 17.3 mph 21.9 mph N/A Snow Light Snow
2:35 PM 21.2 °F 7.8 °F 17.6 °F 86% 30.15 in 3.0 mi NNE 15.0 mph - N/A Snow Light Snow
2:55 PM 21.2 °F 10.1 °F 17.6 °F 86% 30.15 in 2.0 mi NNE 10.4 mph 18.4 mph N/A Snow Light Snow
3:15 PM 21.2 °F 8.3 °F 17.6 °F 86% 30.16 in 2.5 mi North 13.8 mph - N/A Snow Light Snow
3:35 PM 19.4 °F 7.2 °F 17.6 °F 93% 30.17 in 2.0 mi NNE 11.5 mph - N/A Snow Light Snow
3:55 PM 19.4 °F 7.2 °F 17.6 °F 93% 30.17 in 1.2 mi North 11.5 mph 16.1 mph N/A Snow Light Snow
4:15 PM 19.4 °F 7.9 °F 14.0 °F 80% 30.17 in 10.0 mi North 10.4 mph - N/A   Overcast
4:35 PM 19.4 °F 7.2 °F 14.0 °F 80% 30.17 in 7.0 mi North 11.5 mph - N/A Snow Light Snow
4:55 PM 19.4 °F 6.6 °F 14.0 °F 80% 30.16 in 10.0 mi NNE 12.7 mph - N/A Snow Light Snow
5:15 PM 19.4 °F 9.5 °F 15.8 °F 86% 30.17 in 10.0 mi North 8.1 mph - N/A Snow Light Snow
5:34 PM 17.6 °F 5.7 °F 14.0 °F 86% 30.17 in 10.0 mi NNE 10.4 mph - N/A   Overcast
5:55 PM 17.6 °F 6.4 °F 14.0 °F 86% 30.17 in 10.0 mi NNE 9.2 mph - N/A   Overcast
6:15 PM 17.6 °F 6.4 °F 14.0 °F 86% 30.18 in 10.0 mi NNE 9.2 mph - N/A   Overcast
6:35 PM 17.6 °F 10.7 °F 14.0 °F 86% 30.18 in 10.0 mi North 4.6 mph - N/A   Overcast
6:55 PM 17.6 °F 9.3 °F 14.0 °F 86% 30.18 in 10.0 mi North 5.8 mph - N/A   Overcast
7:14 PM 17.6 °F 10.7 °F 14.0 °F 86% 30.18 in 10.0 mi NNW 4.6 mph - N/A   Overcast
7:34 PM 17.6 °F 10.7 °F 14.0 °F 86% 30.18 in 10.0 mi North 4.6 mph - N/A   Overcast
7:55 PM 17.6 °F 12.3 °F 12.2 °F 79% 30.19 in 10.0 mi North 3.5 mph - N/A   Overcast
8:14 PM 17.6 °F 10.7 °F 12.2 °F 79% 30.19 in 10.0 mi NE 4.6 mph - N/A   Overcast
8:35 PM 17.6 °F 8.2 °F 12.2 °F 79% 30.19 in 10.0 mi ENE 6.9 mph - N/A   Overcast
8:54 PM 15.8 °F 7.2 °F 12.2 °F 86% 30.20 in 10.0 mi ENE 5.8 mph - N/A   Overcast
9:14 PM 15.8 °F 8.6 °F 12.2 °F 86% 30.20 in 10.0 mi East 4.6 mph - N/A   Overcast
9:34 PM 14.0 °F 6.5 °F 10.4 °F 86% 30.20 in 10.0 mi ESE 4.6 mph - N/A   Overcast
9:55 PM 14.0 °F 5.1 °F 10.4 °F 86% 30.19 in 10.0 mi SSE 5.8 mph - N/A   Overcast
10:15 PM 14.0 °F 3.9 °F 10.4 °F 86% 30.18 in 10.0 mi South 6.9 mph - N/A   Overcast
10:35 PM 12.2 °F 2.9 °F 8.6 °F 85% 30.18 in 10.0 mi South 5.8 mph - N/A   Mostly Cloudy
10:55 PM 10.4 °F 0.8 °F 6.8 °F 85% 30.17 in 10.0 mi South 5.8 mph - N/A   Scattered Clouds
11:15 PM 10.4 °F 2.2 °F 8.6 °F 92% 30.17 in 10.0 mi SSE 4.6 mph - N/A   Scattered Clouds
11:35 PM 8.6 °F -3.7 °F 5.0 °F 85% 30.16 in 10.0 mi SE 8.1 mph - N/A   Scattered Clouds
11:53 PM 12.2 °F -0.2 °F 8.6 °F 85% 30.16 in 10.0 mi SSE 9.2 mph - N/A   Scattered Clouds